When you browse on this site, cookies collect data to enhance your experience and personalize the content and advertising you see.
Visit our Privacy Policy to learn more. By continuing to use the site, you agree to this use of cookies and data.
  • In United Kingdom
  • List of Countries
  • For 7 days
  • Water Temperature
  • Satellite Maps
  • Weather Map
  • Weather Widgets
  • user-avatar
    Login

    Hourly Weather Saurimo

    Today, 17 December, Monday

    Time Temperature Precipitation Wind Pressure Humidity
    00:00 +20°C° 0 mm 1 mps 671 mmHg 97%
    01:00 +19°C° 0 mm 1 mps 671 mmHg 97%
    02:00 +19°C° 0 mm 1 mps 671 mmHg 97%
    03:00 +19°C° 0 mm 1 mps 671 mmHg 97%
    04:00 +19°C° 0 mm 1 mps 670 mmHg 97%
    05:00 +20°C° 0 mm 1 mps 671 mmHg 95%
    06:00 +20°C° 0 mm 1 mps 671 mmHg 94%
    07:00 +20°C° 0 mm 2 mps 672 mmHg 92%
    08:00 +21°C° 0.3 mm 2 mps 672 mmHg 88%
    09:00 +24°C° 0.3 mm 2 mps 672 mmHg 83%
    10:00 +25°C° 0.3 mm 3 mps 672 mmHg 79%
    11:00 +26°C° 0.5 mm 3 mps 672 mmHg 76%
    12:00 +26°C° 0.5 mm 3 mps 671 mmHg 73%
    13:00 +27°C° 0.5 mm 3 mps 671 mmHg 71%
    14:00 +27°C° 0.4 mm 3 mps 670 mmHg 73%
    15:00 +26°C° 0.4 mm 3 mps 670 mmHg 76%
    16:00 +26°C° 0.4 mm 3 mps 670 mmHg 79%
    17:00 +24°C° 0.3 mm 2 mps 670 mmHg 84%
    18:00 +23°C° 0.3 mm 2 mps 670 mmHg 89%
    19:00 +21°C° 0.3 mm 1 mps 670 mmHg 94%
    20:00 +21°C° 0 mm 1 mps 671 mmHg 95%
    21:00 +20°C° 0 mm 1 mps 671 mmHg 96%
    22:00 +20°C° 0 mm 1 mps 671 mmHg 96%
    23:00 +20°C° 0 mm 1 mps 671 mmHg 96%

    Tomorrow, 18 December, Tuesday

    Time Temperature Precipitation Wind Pressure Humidity
    00:00 +20°C° 0 mm 1 mps 671 mmHg 96%
    01:00 +20°C° 0 mm 1 mps 670 mmHg 96%
    02:00 +19°C° 0 mm 1 mps 670 mmHg 96%
    03:00 +19°C° 0 mm 1 mps 670 mmHg 97%
    04:00 +19°C° 0 mm 1 mps 670 mmHg 97%
    05:00 +20°C° 0 mm 1 mps 670 mmHg 95%
    06:00 +21°C° 0 mm 1 mps 671 mmHg 92%
    07:00 +21°C° 0 mm 2 mps 672 mmHg 90%
    08:00 +24°C° 0.2 mm 2 mps 672 mmHg 82%
    09:00 +25°C° 0.2 mm 3 mps 672 mmHg 75%
    10:00 +27°C° 0.2 mm 4 mps 672 mmHg 68%
    11:00 +28°C° 0.3 mm 4 mps 672 mmHg 64%
    12:00 +29°C° 0.3 mm 4 mps 671 mmHg 61%
    13:00 +29°C° 0.3 mm 4 mps 671 mmHg 57%
    14:00 +28°C° 0.7 mm 3 mps 670 mmHg 65%
    15:00 +28°C° 0.7 mm 3 mps 670 mmHg 73%
    16:00 +27°C° 0.7 mm 2 mps 669 mmHg 81%
    17:00 +25°C° 0.9 mm 2 mps 669 mmHg 85%
    18:00 +23°C° 0.9 mm 2 mps 670 mmHg 89%
    19:00 +21°C° 0.9 mm 2 mps 670 mmHg 93%
    20:00 +21°C° 0.4 mm 2 mps 670 mmHg 94%
    21:00 +20°C° 0.4 mm 2 mps 671 mmHg 95%
    22:00 +20°C° 0.4 mm 2 mps 671 mmHg 95%
    23:00 +20°C° 0 mm 2 mps 670 mmHg 96%

    Day after tomorrow, 19 December, Wednesday

    Time Temperature Precipitation Wind Pressure Humidity
    00:00 +19°C° 0 mm 2 mps 670 mmHg 96%
    01:00 +19°C° 0 mm 2 mps 669 mmHg 97%
    02:00 +20°C° 0 mm 1 mps 669 mmHg 97%
    03:00 +20°C° 0 mm 1 mps 669 mmHg 97%
    04:00 +20°C° 0 mm 1 mps 669 mmHg 97%
    05:00 +20°C° 0 mm 1 mps 670 mmHg 96%
    06:00 +20°C° 0 mm 2 mps 670 mmHg 95%
    07:00 +20°C° 0 mm 2 mps 671 mmHg 94%
    08:00 +21°C° 0.3 mm 2 mps 671 mmHg 93%
    09:00 +21°C° 0.3 mm 2 mps 671 mmHg 92%
    10:00 +23°C° 0.3 mm 2 mps 671 mmHg 91%
    11:00 +24°C° 1 mm 2 mps 671 mmHg 88%
    12:00 +25°C° 1 mm 2 mps 670 mmHg 85%
    13:00 +26°C° 1 mm 3 mps 670 mmHg 82%
    14:00 +26°C° 1 mm 2 mps 669 mmHg 84%
    15:00 +26°C° 1 mm 2 mps 669 mmHg 86%
    16:00 +25°C° 1 mm 2 mps 669 mmHg 88%
    17:00 +24°C° 0.7 mm 2 mps 669 mmHg 90%
    18:00 +23°C° 0.7 mm 2 mps 669 mmHg 93%
    19:00 +21°C° 0.7 mm 1 mps 669 mmHg 95%
    20:00 +20°C° 0.1 mm 2 mps 670 mmHg 96%
    21:00 +20°C° 0.1 mm 2 mps 670 mmHg 96%
    22:00 +20°C° 0.1 mm 2 mps 670 mmHg 97%
    23:00 +19°C° 0.3 mm 2 mps 670 mmHg 97%

    20 December, Thursday

    Time Temperature Precipitation Wind Pressure Humidity
    00:00 +20°C° 0.3 mm 1 mps 669 mmHg 97%
    01:00 +20°C° 0.3 mm 1 mps 669 mmHg 97%
    02:00 +19°C° 0.1 mm 2 mps 669 mmHg 97%
    03:00 +19°C° 0.1 mm 2 mps 669 mmHg 97%
    04:00 +19°C° 0.1 mm 2 mps 669 mmHg 97%
    05:00 +19°C° 0 mm 2 mps 669 mmHg 96%
    06:00 +20°C° 0 mm 2 mps 670 mmHg 96%
    07:00 +20°C° 0 mm 2 mps 671 mmHg 95%
    08:00 +21°C° 0.7 mm 2 mps 671 mmHg 92%
    09:00 +23°C° 0.7 mm 2 mps 671 mmHg 90%
    10:00 +24°C° 0.7 mm 3 mps 671 mmHg 87%
    11:00 +25°C° 0.8 mm 3 mps 670 mmHg 84%
    12:00 +26°C° 0.8 mm 2 mps 670 mmHg 81%
    13:00 +27°C° 0.8 mm 2 mps 670 mmHg 77%
    14:00 +26°C° 0.6 mm 2 mps 669 mmHg 79%
    15:00 +26°C° 0.6 mm 2 mps 669 mmHg 81%
    16:00 +26°C° 0.6 mm 2 mps 669 mmHg 84%
    17:00 +24°C° 0.8 mm 2 mps 669 mmHg 87%
    18:00 +23°C° 0.8 mm 1 mps 669 mmHg 91%
    19:00 +21°C° 0.8 mm 1 mps 670 mmHg 95%
    20:00 +21°C° 0.1 mm 1 mps 670 mmHg 95%
    21:00 +21°C° 0.1 mm 1 mps 670 mmHg 96%
    22:00 +21°C° 0.1 mm 1 mps 671 mmHg 97%
    23:00 +20°C° 0 mm 1 mps 670 mmHg 97%

    21 December, Friday

    Time Temperature Precipitation Wind Pressure Humidity
    00:00 +20°C° 0 mm 1 mps 670 mmHg 97%
    01:00 +20°C° 0 mm 1 mps 669 mmHg 98%
    02:00 +20°C° 0.1 mm 1 mps 669 mmHg 98%
    03:00 +20°C° 0.1 mm 1 mps 669 mmHg 98%
    04:00 +20°C° 0.1 mm 1 mps 669 mmHg 98%
    05:00 +19°C° 0 mm 2 mps 669 mmHg 97%
    06:00 +20°C° 0 mm 2 mps 670 mmHg 96%
    07:00 +20°C° 0 mm 2 mps 671 mmHg 95%
    08:00 +21°C° 0.2 mm 2 mps 671 mmHg 91%
    09:00 +23°C° 0.2 mm 2 mps 671 mmHg 86%
    10:00 +25°C° 0.2 mm 2 mps 671 mmHg 82%
    11:00 +26°C° 0.7 mm 2 mps 671 mmHg 78%
    12:00 +27°C° 0.7 mm 2 mps 670 mmHg 74%
    13:00 +28°C° 0.7 mm 2 mps 670 mmHg 70%
    14:00 +27°C° 1.1 mm 2 mps 669 mmHg 74%
    15:00 +27°C° 1.1 mm 2 mps 669 mmHg 79%
    16:00 +26°C° 1.1 mm 1 mps 669 mmHg 83%
    17:00 +25°C° 1.2 mm 1 mps 669 mmHg 87%
    18:00 +23°C° 1.2 mm 1 mps 669 mmHg 90%
    19:00 +22°C° 1.2 mm 1 mps 669 mmHg 93%
    20:00 +21°C° 0.2 mm 1 mps 669 mmHg 94%
    21:00 +21°C° 0.2 mm 1 mps 669 mmHg 95%
    22:00 +20°C° 0.2 mm 1 mps 670 mmHg 96%
    23:00 +20°C° 0 mm 1 mps 669 mmHg 96%

    22 December, Saturday

    Time Temperature Precipitation Wind Pressure Humidity
    00:00 +20°C° 0 mm 1 mps 669 mmHg 97%
    01:00 +19°C° 0 mm 1 mps 668 mmHg 97%
    02:00 +19°C° 0 mm 1 mps 668 mmHg 97%
    03:00 +19°C° 0 mm 1 mps 669 mmHg 97%
    04:00 +19°C° 0 mm 1 mps 669 mmHg 97%
    05:00 +20°C° 0 mm 1 mps 669 mmHg 96%
    06:00 +19°C° 0 mm 2 mps 670 mmHg 95%
    07:00 +20°C° 0 mm 2 mps 670 mmHg 94%
    08:00 +21°C° 0.2 mm 2 mps 670 mmHg 88%
    09:00 +24°C° 0.2 mm 3 mps 670 mmHg 81%
    10:00 +25°C° 0.2 mm 3 mps 671 mmHg 75%
    11:00 +26°C° 0.7 mm 3 mps 670 mmHg 75%
    12:00 +26°C° 0.7 mm 3 mps 670 mmHg 75%
    13:00 +27°C° 0.7 mm 3 mps 669 mmHg 75%
    14:00 +26°C° 0.8 mm 3 mps 669 mmHg 78%
    15:00 +26°C° 0.8 mm 2 mps 668 mmHg 80%
    16:00 +26°C° 0.8 mm 2 mps 668 mmHg 83%
    17:00 +24°C° 0.7 mm 2 mps 668 mmHg 87%
    18:00 +23°C° 0.7 mm 2 mps 668 mmHg 91%
    19:00 +21°C° 0.7 mm 1 mps 668 mmHg 95%
    20:00 +21°C° 0.6 mm 1 mps 669 mmHg 95%
    21:00 +20°C° 0.6 mm 1 mps 669 mmHg 96%
    22:00 +20°C° 0.6 mm 1 mps 669 mmHg 97%
    23:00 +20°C° 0.1 mm 1 mps 669 mmHg 97%
    Show more